#timestamp,LO_Frequency,Hit,StdDev 
1684746015.2,286046998.2,Y
1684746035.9,286047000.5,P
1684746055.7,286046998.1,P
1684746075.6,286047000.3,N
1684746095.4,286046998.1,N
1684746115.2,286047000.5,N
1684746135.1,286047000.6,N
1684746136.0,286047000.6,N
1684746155.8,286046999.8,N
1684746175.7,286047000.3,N
1684746195.5,286046998.1,N
1684746215.3,286046998.4,N
1684746235.2,286046998.1,N
1684746255.0,286046998.2,N
1684746255.9,286046998.2,N
1684746275.7,286046998.2,N
1684746295.6,286047001.1,N
1684746315.4,286046998.1,N
1684746335.3,286047000.1,N
1684746355.1,286047000.3,N
1684746375.8,286047000.6,N
1684746395.7,286047001.0,N
1684746415.5,286046998.9,N
1684746435.4,286047000.3,N
1684746455.2,286047001.0,N
1684746475.0,286047000.5,N
1684746475.9,286047000.5,N
1684746495.8,286047000.6,N
1684746515.6,286047002.5,N
1684746535.4,286047002.4,N
1684746555.3,286046999.7,N
1684746575.1,286047002.6,N
1684746595.9,286047000.0,N
1684746615.7,286046998.1,N
1684746635.5,286046998.8,N
1684746655.4,286046998.6,N
1684746675.2,286047000.3,N
1684746695.0,286047000.1,N
1684746695.9,286047000.1,N
1684746715.8,286047000.0,N
1684746735.6,286047000.4,N
1684746755.5,286047002.3,N
1684746775.3,286047002.2,N
1684746795.1,286047001.7,N
1684746815.9,286047000.0,N
1684746835.7,286046999.7,N
1684746855.5,286047000.0,N
1684746875.4,286046999.8,N
1684746895.2,286047002.5,N
1684746915.1,286047002.4,N
1684746916.0,286047002.4,N
1684746935.8,286046999.9,N
1684746955.6,286047002.4,N
1684746975.5,286047000.6,N
1684746995.3,286046999.7,N
1684747015.1,286047000.4,N
1684747035.9,286046999.8,N
1684747055.7,286047002.8,N
1684747075.6,286047000.9,N
1684747095.4,286046998.7,N
1684747115.2,286046998.2,N
1684747135.1,286047000.9,N
1684747136.0,286047000.9,N
1684747155.8,286047000.5,N
1684747175.6,286047001.1,N
1684747195.5,286047000.6,N
1684747215.3,286047000.0,N
1684747235.2,286046999.7,N
1684747255.9,286047002.0,N
1684747275.7,286047002.2,N
1684747295.6,286047003.9,Y
1684747315.4,286047001.0,P
1684747335.2,286047001.1,P
1684747355.1,286047000.7,P
1684747356.0,286047000.7,Y
1684747375.8,286046998.3,P
1684747395.7,286047000.9,N
1684747415.5,286047001.0,N
1684747435.3,286047000.4,N
1684747455.2,286047000.9,N
1684747475.0,286046999.7,N
1684747475.9,286046999.7,N
1684747495.8,286046999.8,N
1684747515.6,286047000.9,N
1684747535.4,286047001.1,N
1684747555.3,286046998.6,N
1684747575.1,286046998.6,N
1684747576.0,286046998.6,N
1684747595.8,286046998.9,N
1684747615.7,286046999.9,N
1684747635.5,286047001.2,N
1684747655.3,286046999.2,N
1684747675.2,286046999.2,N
1684747695.0,286046998.9,N
1684747695.9,286046998.9,N
1684747715.8,286046998.5,N
1684747735.6,286046998.6,N
1684747755.4,286047001.1,N
1684747775.3,286047000.8,N
1684747795.1,286046998.3,N
1684747815.9,286047001.0,N
1684747835.7,286047000.9,N
1684747855.5,286046998.2,N
1684747875.4,286046998.6,N
1684747895.2,286046998.2,N
1684747915.0,286046998.4,N
1684747915.9,286046998.4,N
1684747935.8,286046999.0,N
1684747955.6,286046998.5,N
1684747975.4,286047000.5,N
1684747995.3,286047000.8,N
1684748015.1,286046999.3,N
1684748035.9,286046998.7,N
1684748055.7,286046999.1,N
1684748075.5,286046999.0,N
1684748095.4,286046997.1,Y
1684748115.2,286046999.1,P
1684748135.0,286046998.6,P
1684748136.0,286046998.6,P
1684748155.8,286046999.0,Y
1684748175.6,286047000.5,P
1684748195.5,286047001.0,N
1684748215.3,286047002.3,N
1684748235.1,286047002.2,N
1684748255.9,286046999.8,N
1684748275.7,286046999.8,N
1684748295.6,286047002.6,N
1684748315.4,286047002.8,N
1684748335.2,286047002.3,N
1684748355.1,286047002.5,N
1684748356.0,286047002.5,N
1684748375.8,286047002.3,N
1684748395.6,286047000.6,N
1684748415.5,286047000.8,N
1684748435.3,286047001.2,N
1684748455.1,286046998.6,N
1684748475.9,286046999.2,N
1684748495.7,286046996.5,N
1684748515.6,286046997.7,N
1684748535.4,286046997.6,N
1684748555.2,286046997.5,N
1684748575.1,286046998.0,N
1684748576.0,286046998.0,N
1684748595.8,286046995.2,N
1684748615.7,286046995.4,N
1684748665.5,286046995.4,E
1684748675.4,286047001.2,N
1684748695.3,286047004.2,P
1684748715.1,286047001.8,N
1684748735.9,286047002.5,N
1684748755.7,286047001.5,N
1684748775.5,286047001.8,N
1684748795.4,286047003.5,Y
1684748815.2,286047001.2,P
1684748835.0,286047000.5,N
1684748835.9,286047000.5,N
1684748855.8,286047000.0,N
1684748875.6,286047002.4,Y
1684748895.5,286047000.9,P
1684748915.3,286046998.6,P
1684748935.1,286046998.9,N
1684748955.9,286046999.2,N
1684748975.7,286046999.0,N
1684748995.5,286046998.5,N
1684749015.4,286046999.7,N
1684749035.2,286047000.3,N
1684749055.1,286047000.3,N
1684749056.0,286047000.3,N
1684749075.8,286047000.3,N
1684749095.6,286047000.0,N
1684749115.5,286047000.0,N
1684749135.3,286047001.0,N
1684749155.1,286047002.3,N
1684749175.9,286047002.3,N
1684749195.7,286047002.4,N
1684749215.6,286047001.6,N
1684749235.4,286047002.0,N
1684749255.2,286047002.5,N
1684749275.1,286047002.7,N
1684749276.0,286047002.7,N
1684749295.8,286047002.8,N
1684749315.6,286047002.5,N
1684749335.5,286047002.7,N
1684749355.3,286047002.6,N
1684749375.2,286047002.4,N
1684749395.9,286047001.2,N
1684749415.7,286047000.1,N
1684749435.6,286047002.3,N
1684749455.4,286047000.1,N
1684749475.2,286047002.0,N
1684749495.1,286047002.2,N
1684749496.0,286047002.2,N
1684749515.8,286047002.8,N
1684749535.7,286047002.4,N
1684749555.5,286046999.8,N
1684749575.3,286047002.6,N
1684749595.2,286046999.8,N
